Temp
18 19 19 18 22 24 25 25 25 24 24 21 20 22 22 19 19 19 11 11 11 10 9 8 8 7 7 7 6 7 7 7 8 8 8 8 8 8 9 8 9 8 13 14 15 15 15 14 14
18 19 18 21 23 24 26 25 24 24 21 19 19 20 22 19 14 11 10 10 10 9 8 8 7 7 7 6 6 7 7 7 7 8 7 8 8 8 8 9 10 9 12 13 14 14 15 14 14
19 19 21 23 24 25 25 25 24 21 19 20 20 18 18 16 13 12 11 10 10 9 8 8 7 7 6 6 6 6 7 7 7 7 7 8 7 8 8 9 12 13 13 13 13 14 14 14 14
17 18 21 22 24 25 24 23 22 21 19 19 20 20 14 11 13 12 10 10 10 10 8 7 6 6 6 6 6 6 7 7 7 7 7 7 11 11 11 11 12 12 13 13 13 13 14 14 14
17 20 23 23 24 24 24 21 22 22 21 20 19 19 15 11 10 10 10 10 10 10 8 7 6 6 6 5 6 6 6 7 9 9 10 11 11 11 11 11 11 11 11 12 12 13 13 13 13
20 21 22 23 24 23 23 20 21 22 21 19 19 19 14 10 10 10 10 10 10 10 8 7 6 6 5 5 5 6 8 10 10 10 10 11 11 11 11 12 11 11 11 11 12 13 12 13 13
20 22 23 23 23 23 22 19 21 22 22 21 18 20 13 10 10 9 10 10 10 9 8 7 6 6 5 5 7 8 9 10 10 10 10 11 11 11 11 11 12 11 11 11 12 12 12 12 13
19 21 22 23 23 23 20 19 18 19 20 16 16 20 16 11 9 9 9 9 9 8 8 8 6 6 5 7 8 9 9 9 10 10 10 10 11 11 11 11 11 11 11 12 12 12 12 12 12
17 21 22 23 21 21 18 20 17 16 18 17 15 14 12 11 9 9 9 8 8 8 7 7 6 6 6 5 8 8 9 9 9 10 10 10 10 10 11 11 11 11 11 12 11 12 12 12 12
19 21 22 20 20 20 18 18 18 18 18 17 14 11 10 9 8 8 8 8 7 7 7 7 6 6 5 5 7 8 9 9 9 9 9 10 10 10 10 10 11 11 11 11 11 11 12 12 12
19 20 19 18 17 16 18 17 16 18 19 19 18 12 9 8 8 8 8 8 8 7 6 6 6 5 5 6 8 8 8 8 9 9 9 9 9 10 10 10 10 10 11 11 11 11 12 12 12
19 17 17 16 14 15 17 16 17 17 17 14 13 13 10 9 9 9 9 9 8 7 6 6 5 5 6 7 6 7 8 8 8 9 9 9 9 9 10 10 10 10 10 11 11 11 11 11 11
19 17 15 14 13 14 14 16 17 16 15 13 12 12 11 10 9 9 9 8 8 7 6 5 6 6 7 7 7 7 8 8 8 8 9 9 9 9 10 10 10 10 10 10 10 10 10 10 10
17 17 16 14 15 14 14 17 13 17 14 13 12 12 12 11 10 9 8 8 7 6 5 6 7 7 8 7 7 7 7 8 8 8 8 9 9 9 9 9 9 10 10 10 10 10 10 9 9
16 17 16 16 15 16 13 16 15 16 13 14 13 13 12 11 10 9 8 7 7 6 6 6 7 7 7 7 7 7 7 7 8 8 8 8 9 9 9 9 9 9 9 9 10 10 9 9 9
18 18 19 16 15 15 15 20 18 15 15 16 14 13 11 10 10 9 8 7 7 6 6 7 7 7 7 7 7 7 7 7 7 8 8 8 8 8 8 9 9 9 9 9 9 9 9 9 8
19 20 20 18 14 15 16 20 19 14 14 16 15 13 12 11 9 9 8 7 7 6 6 7 7 7 6 6 6 6 7 7 7 7 7 8 8 8 8 8 8 8 9 9 9 9 9 8 8
21 20 21 20 15 15 16 18 20 17 14 16 16 14 12 11 10 9 8 7 6 6 6 7 7 6 6 6 6 6 6 6 7 7 7 7 8 8 8 8 8 8 8 8 8 8 8 8 8
18 19 19 21 13 14 17 18 19 19 17 15 16 14 13 11 10 9 8 7 6 6 6 7 7 6 6 6 6 6 6 6 6 6 7 7 7 7 7 7 7 7 8 8 8 8 8 8 8
17 17 18 18 13 13 17 17 19 19 15 16 15 13 12 11 10 8 8 7 6 6 6 7 7 7 6 6 6 5 5 6 6 6 6 6 7 7 7 7 7 7 7 7 7 7 7 7 7
16 17 18 16 14 14 13 17 20 16 15 13 12 12 12 11 10 8 8 7 6 6 6 6 7 7 6 6 5 5 5 5 6 6 6 6 6 6 6 6 6 6 6 6 6 6 6 6 6
15 13 13 13 14 15 14 16 21 19 15 14 13 12 11 11 11 9 8 7 6 6 5 5 6 6 6 6 6 6 6 6 5 5 5 5 6 6 6 6 6 6 6 6 6 5 5 5 5
13 11 12 11 12 11 15 11 17 18 17 16 15 13 11 10 10 9 8 7 6 5 5 6 5 6 6 6 5 5 4 4 4 5 5 5 5 5 5 5 5 5 5 5 5 5 5 5 4
10 11 11 11 12 10 11 14 18 20 17 19 15 12 9 8 8 8 7 6 6 5 5 5 6 5 5 5 5 4 4 5 5 5 5 5 4 4 4 4 4 4 4 4 4 4 4 4 3
10 12 13 12 10 13 10 11 16 17 13 12 15 11 8 7 7 7 6 5 4 4 5 5 5 5 5 4 5 4 4 4 4 4 4 4 4 4 3 3 3 3 3 3 3 3 3 3 2
10 8 13 13 16 17 10 12 16 10 9 10 11 8 6 6 7 6 5 5 4 4 5 4 4 5 5 4 4 4 4 4 4 3 3 3 3 3 3 2 2 2 2 2 2 2 2 1 1
10 9 10 8 8 10 16 17 11 10 9 8 8 7 6 5 6 6 5 4 4 3 4 4 4 4 4 4 4 3 3 3 3 3 3 2 2 2 2 1 1 1 1 1 1 1 1 0 0
7 7 10 8 11 13 17 16 16 13 12 9 8 8 6 4 4 5 4 4 3 3 2 2 2 3 3 3 3 2 2 2 2 2 1 1 1 1 1 1 0 0 0 0 -0 -0 -0 -0 -0
6 6 7 7 10 12 13 15 8 8 7 8 9 7 5 4 4 4 4 3 3 2 1 1 1 2 2 2 1 1 1 1 1 0 0 0 0 -0 -0 -0 -1 -1 -1 -1 -1 -1 -1 -1 -1
3 5 6 10 9 9 8 11 6 3 1 0 5 5 4 3 2 2 2 2 1 0 -0 -0 1 1 1 1 1 1 1 0 0 0 -0 -1 -2 -2 -1 -1 -1 -1 -1 -1 -1 -1 -1 -1 -1
Height
1488 1489 1490 1494 1494 1482 1473 1475 1472 1477 1480 1489 1490 1489 1491 1496 1498 1504 1514 1514 1516 1518 1519 1520 1521 1522 1522 1523 1523 1524 1524 1524 1524 1524 1523 1522 1521 1520 1519 1518 1517 1515 1514 1513 1513 1513 1512 1512 1513
1490 1490 1491 1491 1489 1480 1469 1471 1477 1480 1488 1490 1492 1493 1493 1500 1506 1508 1511 1515 1518 1518 1520 1521 1522 1522 1523 1524 1524 1525 1525 1525 1525 1524 1524 1523 1522 1521 1520 1519 1518 1516 1515 1515 1514 1514 1514 1513 1513
1490 1491 1492 1485 1479 1476 1471 1474 1480 1489 1491 1491 1493 1496 1498 1505 1508 1510 1511 1515 1519 1520 1520 1521 1522 1523 1524 1525 1525 1525 1526 1526 1525 1525 1525 1524 1523 1521 1521 1520 1519 1518 1517 1516 1516 1516 1515 1515 1514
1491 1494 1492 1488 1478 1474 1475 1480 1486 1489 1493 1494 1494 1497 1504 1507 1510 1510 1511 1517 1520 1523 1522 1522 1523 1525 1526 1526 1526 1527 1528 1527 1526 1526 1525 1524 1523 1523 1522 1520 1520 1519 1519 1518 1517 1517 1517 1516 1516
1491 1492 1485 1483 1478 1477 1480 1486 1487 1487 1490 1493 1495 1497 1505 1507 1507 1510 1513 1518 1521 1524 1522 1523 1524 1526 1527 1527 1527 1528 1528 1527 1526 1526 1526 1525 1525 1524 1523 1522 1521 1520 1520 1519 1519 1518 1518 1518 1518
1491 1490 1485 1481 1474 1480 1483 1487 1487 1487 1491 1495 1496 1497 1506 1507 1509 1512 1515 1519 1522 1525 1524 1524 1525 1527 1527 1527 1527 1528 1528 1528 1528 1528 1527 1527 1526 1525 1525 1524 1523 1522 1521 1521 1520 1519 1519 1520 1520
1489 1486 1481 1479 1479 1482 1483 1489 1487 1487 1489 1493 1497 1495 1507 1508 1510 1513 1517 1520 1522 1525 1526 1526 1527 1527 1527 1527 1528 1528 1529 1529 1529 1529 1529 1528 1528 1527 1526 1525 1525 1524 1523 1522 1522 1521 1521 1520 1521
1490 1487 1481 1480 1478 1481 1489 1490 1491 1492 1492 1496 1497 1494 1502 1506 1509 1513 1517 1520 1522 1525 1527 1528 1528 1529 1529 1528 1529 1530 1530 1530 1531 1531 1531 1530 1530 1529 1528 1527 1526 1526 1525 1524 1523 1523 1523 1522 1523
1490 1486 1481 1478 1484 1482 1490 1489 1492 1493 1495 1497 1499 1500 1502 1502 1507 1512 1515 1518 1521 1524 1526 1527 1528 1530 1530 1529 1530 1531 1531 1532 1532 1532 1532 1532 1532 1531 1530 1529 1528 1527 1527 1526 1525 1525 1524 1524 1524
1488 1484 1478 1485 1487 1486 1491 1491 1492 1493 1494 1496 1499 1499 1501 1503 1506 1510 1512 1515 1519 1522 1525 1527 1528 1529 1530 1530 1531 1532 1533 1533 1534 1534 1534 1534 1533 1533 1532 1531 1530 1529 1529 1528 1527 1527 1526 1526 1526
1487 1484 1486 1490 1492 1493 1492 1492 1493 1491 1490 1492 1495 1499 1501 1503 1506 1510 1513 1515 1518 1521 1524 1526 1527 1529 1530 1531 1531 1533 1534 1535 1535 1535 1535 1535 1535 1535 1534 1533 1533 1532 1531 1530 1530 1529 1528 1528 1528
1487 1490 1491 1493 1494 1494 1493 1493 1491 1492 1492 1494 1496 1498 1499 1501 1504 1508 1511 1514 1517 1519 1522 1524 1526 1527 1529 1530 1533 1533 1534 1535 1536 1536 1537 1537 1537 1537 1536 1536 1535 1534 1533 1532 1532 1531 1531 1531 1531
1486 1490 1493 1494 1495 1495 1495 1492 1491 1491 1492 1493 1494 1496 1498 1500 1503 1507 1510 1514 1516 1518 1520 1521 1523 1526 1528 1531 1532 1534 1535 1536 1537 1537 1538 1539 1539 1539 1538 1538 1537 1536 1536 1534 1534 1533 1533 1533 1533
1490 1490 1492 1494 1494 1495 1494 1490 1492 1486 1490 1492 1493 1494 1496 1497 1501 1504 1507 1510 1513 1516 1518 1520 1522 1525 1528 1530 1532 1534 1535 1536 1537 1538 1539 1540 1540 1540 1540 1540 1539 1539 1538 1537 1536 1536 1536 1535 1535
1490 1489 1491 1491 1492 1492 1494 1488 1486 1485 1488 1490 1491 1492 1493 1495 1498 1501 1504 1507 1510 1514 1516 1518 1521 1524 1527 1529 1531 1533 1535 1537 1538 1539 1540 1541 1541 1542 1541 1541 1541 1541 1540 1540 1539 1539 1539 1539 1539
1487 1487 1483 1488 1491 1491 1493 1477 1479 1485 1486 1486 1488 1490 1491 1492 1495 1499 1502 1505 1508 1511 1514 1516 1519 1523 1526 1529 1531 1533 1535 1537 1538 1539 1540 1542 1542 1543 1543 1543 1543 1543 1543 1542 1542 1542 1541 1541 1541
1482 1478 1478 1483 1490 1491 1490 1475 1476 1483 1484 1483 1484 1486 1488 1490 1493 1496 1499 1502 1505 1509 1512 1514 1518 1522 1525 1528 1530 1533 1535 1537 1538 1540 1541 1542 1543 1544 1544 1545 1545 1545 1545 1545 1544 1544 1544 1543 1543
1472 1476 1473 1478 1489 1489 1484 1477 1473 1477 1481 1480 1480 1482 1485 1488 1490 1493 1497 1500 1503 1507 1510 1513 1517 1520 1523 1526 1529 1532 1534 1536 1538 1540 1541 1543 1543 1544 1545 1546 1546 1546 1546 1546 1546 1546 1546 1546 1545
1479 1478 1477 1472 1490 1490 1479 1474 1470 1472 1474 1477 1477 1479 1481 1484 1488 1491 1494 1497 1501 1505 1508 1511 1515 1518 1521 1524 1527 1531 1533 1535 1537 1539 1541 1543 1544 1544 1546 1547 1547 1547 1547 1547 1548 1548 1548 1547 1547
1481 1481 1478 1477 1490 1492 1476 1471 1466 1466 1471 1472 1474 1477 1479 1483 1485 1488 1491 1495 1498 1502 1505 1509 1513 1516 1519 1523 1526 1530 1532 1534 1536 1538 1540 1542 1543 1544 1545 1546 1547 1548 1548 1549 1549 1549 1549 1549 1548
1481 1481 1478 1486 1488 1487 1487 1466 1454 1464 1468 1472 1474 1475 1478 1480 1483 1486 1489 1492 1496 1500 1503 1507 1511 1514 1518 1521 1524 1527 1530 1532 1534 1537 1538 1540 1542 1543 1545 1546 1547 1548 1549 1549 1549 1550 1550 1549 1549
1483 1486 1489 1491 1491 1487 1486 1477 1448 1453 1464 1467 1470 1473 1476 1479 1482 1484 1487 1491 1494 1498 1502 1506 1509 1512 1516 1518 1522 1525 1528 1530 1533 1535 1537 1539 1540 1542 1544 1545 1546 1547 1548 1549 1549 1550 1550 1550 1550
1487 1492 1492 1494 1495 1497 1479 1496 1457 1451 1455 1458 1465 1470 1475 1477 1480 1483 1486 1490 1494 1497 1499 1503 1507 1510 1513 1517 1520 1524 1527 1530 1531 1533 1535 1537 1539 1540 1542 1544 1545 1546 1547 1548 1548 1549 1550 1550 1550
1495 1493 1494 1494 1492 1501 1482 1478 1454 1443 1449 1447 1461 1469 1474 1477 1480 1483 1486 1489 1493 1495 1498 1501 1504 1508 1511 1515 1518 1522 1525 1527 1529 1531 1533 1535 1538 1539 1541 1542 1544 1545 1545 1546 1547 1548 1548 1549 1549
1497 1491 1489 1491 1499 1480 1487 1488 1458 1448 1459 1462 1460 1471 1476 1477 1479 1482 1485 1487 1489 1492 1495 1499 1502 1505 1510 1514 1516 1519 1522 1525 1528 1530 1532 1533 1535 1537 1539 1541 1542 1543 1544 1545 1546 1547 1547 1547 1547
1493 1500 1487 1487 1464 1457 1488 1477 1453 1464 1468 1468 1467 1474 1477 1479 1480 1482 1484 1487 1489 1491 1494 1498 1501 1504 1507 1512 1515 1518 1520 1523 1525 1528 1530 1532 1534 1535 1537 1539 1540 1541 1542 1543 1544 1545 1545 1545 1546
1495 1497 1496 1501 1497 1489 1456 1445 1460 1465 1469 1472 1474 1476 1478 1479 1481 1483 1485 1487 1489 1491 1494 1497 1500 1503 1506 1509 1513 1515 1517 1520 1523 1526 1528 1530 1532 1534 1536 1537 1538 1539 1540 1541 1542 1542 1543 1543 1544
1499 1502 1493 1498 1488 1471 1446 1450 1448 1458 1462 1471 1474 1476 1479 1480 1481 1483 1485 1487 1490 1492 1494 1496 1499 1502 1504 1507 1511 1513 1515 1518 1521 1524 1526 1528 1530 1532 1534 1535 1536 1537 1538 1538 1539 1540 1540 1541 1541
1502 1499 1499 1498 1485 1473 1463 1452 1470 1470 1474 1473 1475 1478 1480 1481 1482 1483 1485 1488 1490 1492 1494 1495 1497 1499 1502 1504 1509 1511 1513 1516 1518 1522 1525 1527 1529 1531 1532 1533 1534 1535 1535 1536 1536 1537 1537 1538 1538
1503 1498 1498 1484 1482 1483 1487 1465 1476 1478 1479 1480 1478 1480 1481 1482 1482 1483 1485 1486 1488 1490 1492 1495 1496 1498 1499 1502 1505 1509 1511 1515 1517 1519 1523 1525 1527 1529 1530 1531 1531 1532 1532 1532 1533 1534 1534 1534 1535
Wind_Speed
5 5 6 1 5 5 7 3 3 5 6 4 4 5 9 12 7 4 12 13 18 14 15 12 10 8 9 7 10 9 9 8 10 11 11 11 12 12 12 12 13 13 12 12 9 7 7 6 4
6 6 3 3 6 7 5 4 5 8 6 6 5 2 3 6 7 10 9 16 17 14 14 12 10 9 9 9 9 9 9 9 9 11 10 11 12 12 11 11 10 11 11 11 11 9 7 8 8
6 7 3 3 6 7 4 3 7 7 6 3 4 5 3 5 7 10 10 20 16 13 13 13 10 10 9 9 9 9 10 10 9 10 11 10 11 10 10 10 9 8 9 10 11 10 9 8 8
3 2 4 5 9 3 4 5 6 7 3 2 2 6 7 7 8 7 19 19 16 14 11 11 11 11 10 9 9 9 9 9 10 9 10 10 9 10 10 10 10 9 8 9 9 10 9 8 7
3 3 6 6 7 1 2 3 1 5 5 5 2 5 5 3 8 16 20 18 16 15 12 11 12 11 10 9 9 9 8 8 9 9 9 9 10 10 9 10 10 10 9 7 8 9 10 10 8
4 4 6 8 7 2 2 1 2 3 4 4 2 6 5 6 12 18 18 17 16 15 12 13 12 11 10 10 10 8 7 7 8 8 8 9 9 9 10 10 10 10 10 9 8 8 9 10 8
5 5 8 7 5 4 2 1 2 1 3 5 2 2 5 9 14 18 17 16 16 15 13 11 10 11 11 9 9 7 7 6 7 8 8 9 10 10 11 11 11 11 11 11 10 10 9 10 10
3 3 5 5 6 2 3 3 1 2 4 3 1 3 6 14 18 18 17 16 15 15 13 12 11 10 9 7 7 7 6 6 7 8 8 10 11 11 12 12 13 12 12 12 12 12 11 11 10
2 4 6 5 5 4 4 4 2 1 2 3 3 3 7 15 21 20 19 17 16 15 14 13 12 12 10 7 7 6 6 6 7 8 9 11 12 13 14 15 15 15 14 14 14 13 13 12 12
4 5 4 5 2 1 3 1 1 3 6 5 4 4 10 16 21 22 21 20 18 17 15 13 12 12 11 8 7 6 6 7 7 8 10 11 12 13 15 16 17 18 17 17 16 14 13 12 13
2 4 3 2 2 2 1 3 2 4 6 1 4 10 13 17 19 20 19 18 18 17 15 14 13 12 10 9 7 6 6 6 7 8 10 11 12 14 15 16 17 18 18 18 17 15 14 13 13
5 1 1 2 1 1 2 2 4 6 2 4 3 8 14 18 20 20 19 19 19 18 16 15 14 13 11 9 7 6 6 6 7 8 9 11 13 14 16 17 18 19 19 19 18 17 17 16 15
5 3 1 2 1 1 3 5 6 7 5 4 2 8 14 17 19 19 18 18 19 18 17 17 16 14 13 11 9 8 7 7 8 8 9 11 13 14 16 17 18 20 21 21 20 19 17 17 16
1 4 3 2 1 2 4 4 2 7 9 3 3 8 13 18 20 20 21 21 21 19 18 18 18 16 14 12 10 9 8 8 8 9 10 11 12 14 16 17 18 20 21 22 21 20 19 18 17
4 3 4 7 3 2 3 7 8 7 7 5 5 7 12 16 20 22 22 22 21 20 19 19 19 17 15 13 12 10 10 9 8 9 9 10 11 13 15 16 17 19 20 21 21 20 19 18 16
4 3 4 6 2 4 2 7 7 9 6 6 6 6 10 14 19 20 21 21 21 20 20 20 20 19 17 15 13 11 10 10 9 9 9 9 10 12 13 14 15 17 18 19 20 20 18 17 15
6 6 6 4 3 1 7 7 7 8 6 8 7 6 10 13 17 19 20 21 21 21 21 21 20 19 18 16 14 13 12 11 10 9 9 8 9 10 11 12 13 15 16 16 18 19 18 17 15
5 6 5 7 3 5 9 16 13 13 8 10 8 7 10 14 16 18 20 21 21 21 21 21 20 20 19 18 16 14 13 12 11 10 9 8 8 8 8 10 10 12 13 14 15 16 17 16 14
6 7 10 5 3 4 9 15 13 12 10 12 10 6 10 14 14 18 20 21 21 22 23 23 22 22 21 20 18 16 14 13 12 11 10 9 8 7 7 7 7 8 9 11 12 13 14 16 15
5 7 10 2 2 3 10 16 15 11 11 12 8 7 11 15 16 18 20 21 22 23 24 23 23 23 22 20 18 15 14 14 14 12 11 10 9 8 6 5 5 5 6 8 9 11 13 14 15
8 9 7 5 3 8 8 11 9 8 11 10 9 8 10 16 17 19 21 21 22 23 25 24 23 22 22 20 20 18 17 16 15 15 13 12 10 8 6 4 3 2 3 5 7 9 10 12 14
8 4 1 2 2 3 1 5 7 11 11 12 13 11 11 13 14 17 19 20 21 22 23 23 23 22 22 22 20 18 16 16 15 15 15 13 11 9 7 5 3 2 0 2 4 7 9 10 12
2 2 1 1 2 4 8 2 7 2 12 15 14 12 10 11 13 16 18 18 18 20 24 24 22 22 23 21 19 18 14 12 15 16 15 14 12 11 8 6 4 3 2 1 2 4 6 8 10
7 2 2 1 1 3 4 7 8 8 4 8 14 11 9 10 11 13 14 16 17 20 22 23 23 22 22 22 21 18 17 17 15 15 15 14 13 11 8 7 5 5 4 3 3 4 6 7 9
2 2 2 3 2 5 4 4 9 6 7 8 11 10 6 7 12 14 16 17 18 20 22 22 22 23 21 21 21 19 17 15 14 14 14 13 12 11 9 7 6 5 4 4 4 6 8 9 11
7 4 3 5 7 5 3 5 3 6 6 7 10 7 3 5 9 13 14 15 17 20 21 21 22 22 22 20 19 18 16 15 15 15 14 13 11 11 8 7 6 5 5 5 6 8 9 10 10
4 5 3 2 2 3 8 10 9 4 4 4 5 5 4 3 5 9 12 13 15 17 19 19 20 21 20 20 19 18 18 17 16 15 14 13 11 9 8 7 6 6 7 8 9 10 10 8 8
1 2 3 2 4 8 8 5 6 5 2 3 4 3 2 2 3 6 10 12 13 14 16 18 18 20 20 20 18 18 17 16 14 14 12 11 10 9 8 8 8 9 9 9 8 9 9 10 11
4 2 3 2 3 4 9 4 4 5 6 5 3 3 2 2 3 6 9 10 12 14 15 18 19 20 19 19 18 18 17 16 15 12 11 10 9 8 9 9 8 8 8 8 9 10 12 12 13
2 1 2 4 4 2 3 5 4 3 3 3 3 3 3 2 3 6 9 12 14 15 17 18 20 20 20 20 20 19 18 16 15 14 12 10 8 8 8 8 8 9 10 11 12 13 14 15 16
Wind_Direction
142 133 131 230 236 236 248 159 30 129 142 77 57 11 47 40 7 44 147 127 141 142 138 149 153 135 118 109 100 91 83 75 70 70 64 57 55 50 53 54 48 42 44 46 45 46 67 79 72
146 137 123 271 261 225 139 110 191 58 89 102 80 51 67 75 56 124 132 141 142 146 140 146 162 132 120 112 111 96 85 81 77 75 67 60 52 48 43 46 45 47 50 45 41 38 45 76 83
147 151 231 245 254 282 51 102 91 105 101 101 106 54 37 65 93 125 158 143 143 141 143 150 139 131 123 119 112 106 86 77 74 72 65 57 49 46 42 38 29 30 51 53 44 35 42 58 85
131 208 238 251 258 39 22 83 102 134 110 95 91 109 88 90 134 141 141 145 140 139 151 157 144 127 124 117 110 98 88 84 80 66 66 54 46 50 42 37 29 19 25 47 50 44 42 63 79
162 243 245 244 267 334 103 72 147 164 120 138 183 116 87 105 138 141 144 145 145 141 150 151 141 134 130 121 107 103 103 91 80 65 55 47 42 41 41 41 41 41 33 43 55 55 49 55 74
207 271 246 243 226 163 115 71 177 221 139 118 159 141 100 145 138 149 148 149 148 147 149 142 144 142 139 128 120 116 104 78 68 55 46 42 42 41 40 42 50 49 47 41 53 63 62 62 68
269 239 261 292 263 213 89 113 213 198 160 112 80 180 118 147 153 153 150 153 151 148 148 147 149 153 150 143 132 112 93 77 63 56 49 48 47 48 48 49 52 57 54 54 56 63 65 64 61
256 265 256 239 259 216 110 143 84 265 94 77 92 158 158 171 160 156 156 155 157 153 154 151 151 141 136 140 126 107 96 82 70 66 61 61 60 57 58 57 58 59 60 62 64 65 65 69 67
230 244 255 251 242 91 134 196 122 146 160 123 81 86 134 168 158 159 162 162 161 161 161 157 153 150 145 149 128 111 97 85 76 74 73 71 68 66 65 63 61 61 62 63 64 67 67 69 72
240 255 315 41 21 99 131 230 143 221 181 181 140 122 149 158 165 169 172 171 171 168 167 164 161 158 154 151 140 121 102 91 86 83 84 83 78 73 71 66 64 63 62 62 62 62 64 67 69
173 284 72 108 50 350 251 235 216 243 230 198 192 169 167 169 174 178 179 180 177 173 171 170 166 164 163 165 152 136 119 108 100 99 97 91 84 79 74 70 67 64 62 64 65 67 68 67 69
234 152 353 105 39 287 245 304 241 234 49 135 161 173 178 183 185 186 185 183 179 180 177 172 173 169 171 169 154 154 140 128 118 110 104 95 89 84 79 74 70 66 61 60 62 63 66 71 73
245 150 128 116 78 296 294 254 272 242 192 148 166 186 193 192 192 191 188 186 183 182 182 183 185 180 180 167 167 163 155 147 131 120 109 102 95 90 83 78 73 68 64 60 59 60 63 65 65
81 159 156 191 221 270 293 262 298 208 181 199 228 216 204 199 195 190 189 187 186 184 186 189 190 189 183 179 173 172 168 156 144 130 116 108 101 95 88 83 77 71 67 62 60 61 61 61 62
152 218 203 202 211 253 307 243 229 172 191 242 253 218 204 201 196 196 191 190 187 185 185 191 192 190 185 183 181 179 173 166 153 139 126 116 109 100 93 87 81 75 69 65 61 60 59 61 62
224 239 242 117 212 155 259 281 157 178 214 256 236 218 201 197 197 196 193 189 186 184 187 191 193 192 188 189 186 184 177 173 165 153 140 127 116 107 98 91 85 78 70 65 59 57 55 51 50
205 270 213 176 169 256 224 287 145 201 242 260 232 219 203 194 193 193 192 187 187 188 189 193 195 193 191 191 189 187 182 179 175 167 155 140 125 112 101 94 87 82 76 70 64 56 51 48 47
279 234 219 263 118 226 245 258 264 218 251 255 231 219 203 195 194 190 188 185 186 186 191 195 194 192 193 193 192 190 188 186 183 178 168 156 143 129 115 102 91 83 77 71 65 57 50 46 46
297 286 276 279 98 285 256 271 268 252 250 236 219 213 195 190 186 184 184 183 185 188 190 195 194 196 197 196 194 194 193 192 190 188 180 171 161 149 133 115 100 89 79 69 62 58 50 44 37
247 259 266 200 162 262 284 279 272 262 236 217 211 197 183 176 176 178 181 183 188 189 192 195 197 200 201 200 196 193 197 195 199 194 190 185 180 174 164 147 123 100 82 71 60 50 44 39 37
236 246 269 276 316 243 290 271 230 215 206 201 208 196 186 190 184 181 182 184 187 190 194 196 199 201 200 197 196 193 199 200 202 200 198 196 193 190 186 180 164 127 86 64 52 47 41 36 32
273 27 282 275 291 275 254 285 235 186 211 213 205 197 191 189 189 186 184 184 187 190 196 196 199 200 200 202 203 206 208 206 207 207 206 204 205 206 207 210 212 216 4 38 35 32 29 26 23
46 57 106 179 284 334 209 210 265 262 227 217 208 191 185 186 186 184 186 185 184 187 196 195 199 199 202 202 200 199 197 196 205 204 207 209 212 215 220 224 230 244 269 310 348 4 10 9 8
123 141 178 245 253 248 241 215 259 244 259 225 186 183 179 182 182 180 178 178 176 186 190 193 196 196 201 197 196 195 196 207 207 209 209 212 217 221 225 231 239 246 254 269 301 327 339 346 349
195 206 270 228 201 251 146 191 256 337 44 343 162 174 177 177 177 176 175 175 179 183 186 190 191 194 198 199 200 199 206 210 211 207 205 209 214 218 224 232 241 250 261 279 300 315 322 327 328
193 165 247 270 283 318 153 234 251 52 44 44 92 125 147 158 175 182 182 179 183 184 187 187 190 194 196 198 199 200 200 198 199 198 204 203 209 219 225 231 239 251 266 282 294 302 310 315 317
146 209 31 286 204 256 246 247 129 85 97 113 121 141 105 108 171 181 181 182 180 181 184 187 192 192 192 196 198 196 193 195 196 196 197 201 211 216 218 224 236 251 266 281 293 300 305 309 308
215 13 185 191 271 269 264 288 264 55 61 160 180 176 105 81 142 177 184 182 181 179 181 183 186 186 189 190 190 188 186 186 184 188 191 194 199 206 216 229 246 263 276 284 292 296 297 299 300
162 228 215 306 261 267 286 259 36 44 14 343 215 179 184 147 147 171 179 180 176 174 177 177 179 182 181 182 185 184 180 180 180 178 182 192 202 218 238 249 256 265 276 284 289 291 293 294 292
354 28 224 243 192 244 306 268 34 31 348 283 298 194 236 223 191 176 179 176 177 177 179 183 183 183 186 186 188 185 183 180 181 184 200 214 233 243 249 258 267 273 277 281 284 286 286 289 289